FW6569 Weather Reports


time (UTC)temp
C
wind
direction
speed
KPH
gust
KPH
rain 1hr
cm
rain 24hr
cm
rain mn
cm
humidity
%
barometer
mb
20260503213525 16 209 17.7 27.4 0.00 0.00 0.00 40 1014.7
20260503212525 16 198 17.7 25.7 0.00 0.00 0.00 39 1015.0
20260503211525 17 210 16.1 22.5 0.00 0.00 0.00 39 1015.2
20260503210525 17 217 16.1 22.5 0.00 0.00 0.00 39 1015.3
20260503205545 17 216 19.3 27.4 0.00 0.00 0.00 38 1015.4
20260503204525 16 203 17.7 22.5 0.00 0.00 0.00 38 1015.5
20260503203526 17 190 16.1 24.1 0.00 0.00 0.00 38 1015.5
20260503202525 17 218 16.1 27.4 0.00 0.00 0.00 38 1015.7
20260503201525 17 216 16.1 22.5 0.00 0.00 0.00 38 1016.0
20260503200526 17 218 14.5 24.1 0.00 0.00 0.00 37 1016.0
20260503195545 17 200 20.9 32.2 0.00 0.00 0.00 37 1016.0
20260503194525 17 198 17.7 20.9 0.00 0.00 0.00 36 1016.1
20260503193525 17 205 14.5 25.7 0.00 0.00 0.00 37 1016.4
20260503192546 16 197 19.3 27.4 0.00 0.00 0.00 38 1016.5
20260503191546 16 213 20.9 29.0 0.00 0.00 0.00 38 1016.7
20260503190545 15 215 17.7 25.7 0.00 0.00 0.00 38 1017.1
20260503185525 16 215 20.9 27.4 0.00 0.00 0.00 37 1017.2
20260503184526 16 203 19.3 33.8 0.00 0.00 0.00 39 1017.6
20260503183525 16 239 12.9 19.3 0.00 0.00 0.00 37 1017.8
20260503182526 16 218 20.9 29.0 0.00 0.00 0.00 38 1017.9
20260503181526 16 208 14.5 20.9 0.00 0.00 0.00 39 1018.1
20260503180526 16 232 14.5 24.1 0.00 0.00 0.00 38 1018.1
20260503175546 15 207 16.1 29.0 0.00 0.00 0.00 39 1018.2
20260503174526 15 208 19.3 29.0 0.00 0.00 0.00 37 1018.2
20260503173526 16 220 12.9 16.1 0.00 0.00 0.00 39 1018.4
20260503172526 15 229 12.9 20.9 0.00 0.00 0.00 38 1018.6
20260503171526 15 212 17.7 27.4 0.00 0.00 0.00 38 1018.7
20260503170526 15 207 14.5 24.1 0.00 0.00 0.00 38 1018.8
20260503150526 13 225 8.0 14.5 0.00 0.00 0.00 48 1020.5
20260503130526 8 229 8.0 12.9 0.00 0.00 0.00 63 1020.5
20260503110526 1 194 3.2 4.8 0.00 0.00 0.00 92 1019.8
20260503081526 0 0.0 0.0 0.00 0.00 0.00 96 1019.2
20260503080527 0 0.0 0.0 0.00 0.00 0.00 95 1019.3
20260503072526 0 0.0 0.0 0.00 0.00 0.00 95 1019.3
20260503071527 0 0.0 0.0 0.00 0.00 0.00 95 1019.2
20260503070547 0 0.0 0.0 0.00 0.00 0.00 94 1019.2
20260503054527 0 0.0 0.0 0.00 0.00 0.00 93 1019.8
20260503053547 1 0.0 0.0 0.00 0.00 0.00 93 1019.8
20260503052526 1 0.0 0.0 0.00 0.00 0.00 93 1019.9
20260503051547 1 0.0 0.0 0.00 0.00 0.00 93 1019.8
20260503050526 1 0.0 0.0 0.00 0.00 0.00 92 1019.7
20260503045527 1 0.0 0.0 0.00 0.00 0.00 92 1019.7
20260503044527 1 0.0 0.0 0.00 0.00 0.00 92 1019.7
20260503043527 1 0.0 0.0 0.00 0.00 0.00 92 1019.6
20260503042527 1 0.0 0.0 0.00 0.00 0.00 91 1019.6
20260503041526 1 0.0 0.0 0.00 0.00 0.00 91 1019.6
20260503040526 1 0.0 0.0 0.00 0.00 0.00 87 1019.7
20260503035527 1 0.0 0.0 0.00 0.00 0.00 86 1019.7
20260503034527 1 0.0 0.0 0.00 0.00 0.00 86 1019.8
20260503033527 2 0.0 0.0 0.00 0.00 0.00 86 1019.8
20260503032527 2 0.0 0.0 0.00 0.00 0.00 85 1019.8
20260503031527 2 0.0 0.0 0.00 0.00 0.00 84 1019.9
20260503030527 2 0.0 0.0 0.00 0.00 0.00 83 1019.9
20260503025526 3 0.0 0.0 0.00 0.00 0.00 82 1019.8
20260503024527 3 0.0 0.0 0.00 0.00 0.00 80 1019.7
20260503023527 3 0.0 0.0 0.00 0.00 0.00 79 1019.7
20260503022527 3 0.0 0.0 0.00 0.00 0.00 75 1019.6
20260503021527 3 0.0 0.0 0.00 0.00 0.00 75 1019.6
20260503020527 4 0.0 0.0 0.00 0.00 0.00 75 1019.4
20260503015527 4 0.0 0.0 0.00 0.00 0.00 74 1019.3
20260503014527 5 0.0 0.0 0.00 0.00 0.00 72 1019.2
20260503013547 5 0.0 0.0 0.00 0.00 0.00 68 1019.1
20260503012607 5 0.0 0.0 0.00 0.00 0.00 66 1019.1
20260503011527 6 0.0 0.0 0.00 0.00 0.00 63 1018.9
20260503010527 6 0.0 0.0 0.00 0.00 0.00 61 1018.8
20260503005527 7 0.0 0.0 0.00 0.00 0.00 60 1018.7
20260503004527 7 293 0.0 3.2 0.00 0.00 0.00 58 1018.6
20260503003527 8 338 0.0 3.2 0.00 0.00 0.00 55 1018.6
20260503002527 8 346 1.6 4.8 0.00 0.00 0.00 53 1018.5
20260503001527 8 0 6.4 11.3 0.00 0.00 0.00 52 1018.4
20260503000527 9 9 6.4 11.3 0.00 0.00 0.00 50 1018.4
20260502235527 9 6 6.4 12.9 0.00 0.00 0.00 50 1018.4
20260502234547 10 333 4.8 11.3 0.00 0.00 0.00 48 1018.3
20260502233608 10 358 6.4 16.1 0.00 0.00 0.00 47 1018.2
20260502232527 10 344 6.4 9.7 0.00 0.00 0.00 45 1018.2
20260502231527 11 352 8.0 12.9 0.00 0.00 0.00 44 1018.1
20260502230527 11 332 4.8 9.7 0.00 0.00 0.00 45 1018.1
20260502225527 11 358 9.7 16.1 0.00 0.00 0.00 46 1018.1
20260502224527 11 352 4.8 11.3 0.00 0.00 0.00 44 1018.1
20260502223527 12 347 4.8 12.9 0.00 0.00 0.00 43 1018.1
20260502222527 11 343 4.8 11.3 0.00 0.00 0.00 44 1018.1
20260502221527 11 335 6.4 14.5 0.00 0.00 0.00 45 1018.1
20260502220527 11 6 6.4 17.7 0.00 0.00 0.00 46 1018.0
20260502215527 12 356 8.0 20.9 0.00 0.00 0.00 41 1017.9
20260502214528 13 1 9.7 16.1 0.00 0.00 0.00 41 1017.8